• In France
  • List of Countries
  • For 7 days
  • Water Temperature
  • Satellite Maps
  • Weather Map
  • Weather Widgets
  • user-avatar
    Login

    Hourly Weather Nakhchivan

    Today, 23 October, Tuesday

    Time Temperature Precipitation Wind Pressure Humidity
    00:00 +18°C° 0 mm 1 mps 689 mmHg 55%
    01:00 +16°C° 0 mm 1 mps 689 mmHg 55%
    02:00 +16°C° 0 mm 1 mps 689 mmHg 57%
    03:00 +15°C° 0 mm 1 mps 689 mmHg 58%
    04:00 +15°C° 0 mm 1 mps 689 mmHg 59%
    05:00 +14°C° 0 mm 1 mps 688 mmHg 60%
    06:00 +14°C° 0 mm 1 mps 688 mmHg 61%
    07:00 +15°C° 0 mm 1 mps 689 mmHg 56%
    08:00 +18°C° 0 mm 1 mps 689 mmHg 50%
    09:00 +19°C° 0 mm 1 mps 689 mmHg 45%
    10:00 +20°C° 0 mm 1 mps 689 mmHg 42%
    11:00 +20°C° 0 mm 2 mps 689 mmHg 39%
    12:00 +21°C° 0 mm 2 mps 689 mmHg 36%
    13:00 +21°C° 0 mm 2 mps 688 mmHg 35%
    14:00 +23°C° 0 mm 2 mps 688 mmHg 34%
    15:00 +23°C° 0 mm 2 mps 688 mmHg 33%
    16:00 +21°C° 0 mm 2 mps 688 mmHg 36%
    17:00 +20°C° 0 mm 2 mps 687 mmHg 40%
    18:00 +20°C° 0 mm 1 mps 687 mmHg 43%
    19:00 +20°C° 0 mm 1 mps 687 mmHg 44%
    20:00 +19°C° 0 mm 1 mps 687 mmHg 46%
    21:00 +18°C° 0 mm 1 mps 688 mmHg 47%
    22:00 +18°C° 0 mm 1 mps 687 mmHg 48%
    23:00 +18°C° 0 mm 1 mps 687 mmHg 48%

    Tomorrow, 24 October, Wednesday

    Time Temperature Precipitation Wind Pressure Humidity
    00:00 +18°C° 0 mm 1 mps 687 mmHg 49%
    01:00 +18°C° 0 mm 1 mps 687 mmHg 49%
    02:00 +16°C° 0 mm 1 mps 687 mmHg 50%
    03:00 +16°C° 0 mm 1 mps 686 mmHg 51%
    04:00 +16°C° 0 mm 1 mps 686 mmHg 52%
    05:00 +15°C° 0 mm 1 mps 686 mmHg 53%
    06:00 +15°C° 0 mm 1 mps 686 mmHg 54%
    07:00 +16°C° 0 mm 1 mps 686 mmHg 51%
    08:00 +18°C° 0 mm 2 mps 686 mmHg 47%
    09:00 +19°C° 0 mm 2 mps 686 mmHg 44%
    10:00 +20°C° 0 mm 2 mps 686 mmHg 42%
    11:00 +21°C° 0 mm 2 mps 686 mmHg 39%
    12:00 +22°C° 0 mm 3 mps 685 mmHg 37%
    13:00 +22°C° 0 mm 3 mps 685 mmHg 36%
    14:00 +24°C° 0 mm 3 mps 684 mmHg 36%
    15:00 +24°C° 0 mm 3 mps 684 mmHg 35%
    16:00 +22°C° 0 mm 3 mps 684 mmHg 38%
    17:00 +23°C° 0 mm 2 mps 683 mmHg 40%
    18:00 +21°C° 0 mm 2 mps 683 mmHg 43%
    19:00 +20°C° 0 mm 2 mps 683 mmHg 45%
    20:00 +20°C° 0 mm 2 mps 683 mmHg 47%
    21:00 +20°C° 0 mm 2 mps 683 mmHg 49%
    22:00 +19°C° 0.3 mm 2 mps 683 mmHg 51%
    23:00 +19°C° 0.3 mm 2 mps 683 mmHg 54%

    Day after tomorrow, 25 October, Thursday

    Time Temperature Precipitation Wind Pressure Humidity
    00:00 +18°C° 0.3 mm 2 mps 682 mmHg 57%
    01:00 +18°C° 0.1 mm 2 mps 682 mmHg 59%
    02:00 +17°C° 0.1 mm 2 mps 682 mmHg 61%
    03:00 +16°C° 0.1 mm 2 mps 682 mmHg 63%
    04:00 +16°C° 0 mm 2 mps 681 mmHg 64%
    05:00 +16°C° 0 mm 3 mps 681 mmHg 65%
    06:00 +16°C° 0 mm 3 mps 681 mmHg 66%
    07:00 +17°C° 0 mm 3 mps 681 mmHg 61%
    08:00 +18°C° 0 mm 4 mps 681 mmHg 56%
    09:00 +20°C° 0 mm 4 mps 681 mmHg 51%
    10:00 +21°C° 0 mm 5 mps 680 mmHg 46%
    11:00 +22°C° 0 mm 6 mps 680 mmHg 41%
    12:00 +24°C° 0 mm 7 mps 679 mmHg 37%
    13:00 +24°C° 0.2 mm 7 mps 679 mmHg 36%
    14:00 +24°C° 0.2 mm 7 mps 678 mmHg 36%
    15:00 +24°C° 0.2 mm 7 mps 678 mmHg 35%
    16:00 +23°C° 0.4 mm 6 mps 678 mmHg 38%
    17:00 +22°C° 0.4 mm 6 mps 678 mmHg 41%
    18:00 +21°C° 0.4 mm 5 mps 678 mmHg 43%
    19:00 +20°C° 0.2 mm 5 mps 678 mmHg 47%
    20:00 +19°C° 0.2 mm 4 mps 678 mmHg 51%
    21:00 +18°C° 0.2 mm 3 mps 678 mmHg 55%
    22:00 +18°C° 0 mm 3 mps 678 mmHg 58%
    23:00 +18°C° 0 mm 3 mps 678 mmHg 61%

    26 October, Friday

    Time Temperature Precipitation Wind Pressure Humidity
    00:00 +17°C° 0 mm 3 mps 678 mmHg 64%
    01:00 +17°C° 0 mm 3 mps 677 mmHg 64%
    02:00 +17°C° 0 mm 3 mps 677 mmHg 65%
    03:00 +17°C° 0 mm 3 mps 677 mmHg 65%
    04:00 +16°C° 0 mm 3 mps 677 mmHg 66%
    05:00 +15°C° 0 mm 4 mps 677 mmHg 66%
    06:00 +15°C° 0 mm 4 mps 677 mmHg 67%
    07:00 +16°C° 0.2 mm 5 mps 678 mmHg 63%
    08:00 +17°C° 0.2 mm 6 mps 678 mmHg 59%
    09:00 +20°C° 0.2 mm 7 mps 679 mmHg 55%
    10:00 +18°C° 0.7 mm 7 mps 679 mmHg 54%
    11:00 +18°C° 0.7 mm 8 mps 679 mmHg 53%
    12:00 +17°C° 0.7 mm 8 mps 678 mmHg 52%
    13:00 +15°C° 1 mm 6 mps 679 mmHg 57%
    14:00 +14°C° 1 mm 5 mps 679 mmHg 61%
    15:00 +12°C° 1 mm 3 mps 679 mmHg 66%
    16:00 +12°C° 0.7 mm 3 mps 680 mmHg 66%
    17:00 +13°C° 0.7 mm 2 mps 681 mmHg 66%
    18:00 +12°C° 0.7 mm 2 mps 682 mmHg 66%
    19:00 +12°C° 0.1 mm 2 mps 683 mmHg 66%
    20:00 +12°C° 0.1 mm 2 mps 684 mmHg 65%
    21:00 +12°C° 0.1 mm 2 mps 685 mmHg 65%
    22:00 +12°C° 0 mm 2 mps 685 mmHg 64%
    23:00 +10°C° 0 mm 2 mps 686 mmHg 64%

    27 October, Saturday

    Time Temperature Precipitation Wind Pressure Humidity
    00:00 +10°C° 0 mm 2 mps 686 mmHg 63%
    01:00 +11°C° 0 mm 1 mps 687 mmHg 63%
    02:00 +10°C° 0 mm 1 mps 688 mmHg 63%
    03:00 +10°C° 0 mm 1 mps 688 mmHg 62%
    04:00 +9°C° 0 mm 1 mps 689 mmHg 62%
    05:00 +9°C° 0 mm 1 mps 689 mmHg 61%
    06:00 +9°C° 0 mm 1 mps 690 mmHg 61%
    07:00 +9°C° 0 mm 1 mps 691 mmHg 55%
    08:00 +10°C° 0 mm 1 mps 691 mmHg 50%
    09:00 +11°C° 0 mm 1 mps 692 mmHg 45%
    10:00 +12°C° 0 mm 2 mps 692 mmHg 41%
    11:00 +13°C° 0 mm 2 mps 692 mmHg 37%
    12:00 +14°C° 0 mm 2 mps 692 mmHg 33%
    13:00 +14°C° 0 mm 2 mps 692 mmHg 32%
    14:00 +15°C° 0 mm 2 mps 692 mmHg 31%
    15:00 +15°C° 0 mm 2 mps 692 mmHg 30%
    16:00 +14°C° 0 mm 1 mps 692 mmHg 32%
    17:00 +13°C° 0 mm 1 mps 693 mmHg 35%
    18:00 +13°C° 0 mm 1 mps 693 mmHg 38%
    19:00 +12°C° 0 mm 1 mps 693 mmHg 40%
    20:00 +12°C° 0 mm 1 mps 694 mmHg 41%
    21:00 +11°C° 0 mm 1 mps 694 mmHg 43%
    22:00 +11°C° 0 mm 1 mps 694 mmHg 44%
    23:00 +11°C° 0 mm 1 mps 694 mmHg 45%

    28 October, Sunday

    Time Temperature Precipitation Wind Pressure Humidity
    00:00 +10°C° 0 mm 1 mps 694 mmHg 46%
    01:00 +10°C° 0 mm 1 mps 694 mmHg 47%
    02:00 +10°C° 0 mm 1 mps 694 mmHg 47%
    03:00 +9°C° 0 mm 1 mps 694 mmHg 47%
    04:00 +9°C° 0 mm 1 mps 694 mmHg 47%
    05:00 +9°C° 0 mm 1 mps 694 mmHg 48%
    06:00 +9°C° 0 mm 1 mps 694 mmHg 48%
    07:00 +10°C° 0 mm 1 mps 695 mmHg 42%
    08:00 +11°C° 0 mm 0 mps 695 mmHg 37%
    09:00 +13°C° 0 mm 0 mps 696 mmHg 31%
    10:00 +15°C° 0 mm 1 mps 695 mmHg 29%
    11:00 +16°C° 0 mm 1 mps 695 mmHg 26%
    12:00 +18°C° 0 mm 1 mps 695 mmHg 23%
    13:00 +18°C° 0 mm 1 mps 695 mmHg 22%
    14:00 +19°C° 0 mm 1 mps 695 mmHg 22%
    15:00 +19°C° 0 mm 1 mps 695 mmHg 21%
    16:00 +18°C° 0 mm 1 mps 695 mmHg 24%
    17:00 +16°C° 0 mm 1 mps 695 mmHg 28%
    18:00 +15°C° 0 mm 1 mps 695 mmHg 32%
    19:00 +14°C° 0 mm 1 mps 695 mmHg 33%
    20:00 +14°C° 0 mm 1 mps 695 mmHg 34%
    21:00 +12°C° 0 mm 0 mps 695 mmHg 35%
    22:00 +12°C° 0 mm 0 mps 694 mmHg 36%
    23:00 +11°C° 0 mm 0 mps 694 mmHg 37%

    29 October, Monday

    Time Temperature Precipitation Wind Pressure Humidity
    00:00 +11°C° 0 mm 0 mps 694 mmHg 38%
    01:00 +11°C° 0 mm 0 mps 694 mmHg 38%
    02:00 +10°C° 0 mm 0 mps 694 mmHg 38%
    03:00 +10°C° 0 mm 0 mps 693 mmHg 39%
    04:00 +10°C° 0 mm 0 mps 693 mmHg 39%
    05:00 +9°C° 0 mm 0 mps 693 mmHg 38%
    06:00 +9°C° 0 mm 0 mps 693 mmHg 38%
    07:00 +11°C° 0 mm 0 mps 694 mmHg 34%
    08:00 +13°C° 0 mm 0 mps 694 mmHg 29%
    09:00 +15°C° 0 mm 0 mps 695 mmHg 24%
    10:00 +18°C° 0 mm 1 mps 695 mmHg 23%
    11:00 +20°C° 0 mm 1 mps 694 mmHg 22%
    12:00 +21°C° 0 mm 1 mps 694 mmHg 21%
    13:00 +21°C° 0 mm 1 mps 694 mmHg 21%
    14:00 +21°C° 0 mm 1 mps 694 mmHg 21%
    15:00 +22°C° 0 mm 1 mps 694 mmHg 20%
    16:00 +20°C° 0 mm 1 mps 694 mmHg 24%
    17:00 +19°C° 0 mm 1 mps 693 mmHg 28%
    18:00 +16°C° 0 mm 1 mps 693 mmHg 32%
    19:00 +16°C° 0 mm 1 mps 693 mmHg 34%
    20:00 +15°C° 0 mm 1 mps 693 mmHg 35%
    21:00 +15°C° 0 mm 1 mps 694 mmHg 36%
    22:00 +14°C° 0 mm 1 mps 693 mmHg 37%
    23:00 +14°C° 0 mm 1 mps 693 mmHg 39%
    Show more